Time,TemperatureF,DewpointF,PressureIn,WindDirection,WindDirectionDegrees,WindSpeedMPH,WindSpeedGustMPH,Humidity,HourlyPrecipIn,Conditions,Clouds,dailyrainin,SoftwareType,DateUTC
2013-02-12 00:03:00,23.7,10.3,-100.00,North,-999,-999.0,-999.0,52,-99.99,,,-99.99,WSDL version 420,2013-02-12 07:03:00,
2013-02-12 00:08:00,23.7,10.3,-100.00,North,-999,-999.0,-999.0,52,-99.99,,,-99.99,WSDL version 420,2013-02-12 07:08:00,
2013-02-12 00:13:00,23.7,10.2,-100.00,North,-999,-999.0,-999.0,52,-99.99,,,-99.99,WSDL version 420,2013-02-12 07:13:00,
2013-02-12 00:18:00,23.5,10.1,-100.00,North,-999,-999.0,-999.0,52,-99.99,,,-99.99,WSDL version 420,2013-02-12 07:18:00,
2013-02-12 00:23:00,23.5,10.1,-100.00,North,-999,-999.0,-999.0,52,-99.99,,,-99.99,WSDL version 420,2013-02-12 07:23:00,
2013-02-12 00:28:00,23.4,10.0,-100.00,North,-999,-999.0,-999.0,52,-99.99,,,-99.99,WSDL version 420,2013-02-12 07:28:00,
2013-02-12 00:33:00,23.4,9.9,-100.00,North,-999,-999.0,-999.0,52,-99.99,,,-99.99,WSDL version 420,2013-02-12 07:33:00,
2013-02-12 00:38:00,23.1,9.7,-100.00,North,-999,-999.0,-999.0,52,-99.99,,,-99.99,WSDL version 420,2013-02-12 07:38:00,
2013-02-12 00:44:00,22.9,9.5,-100.00,North,-999,-999.0,-999.0,52,-99.99,,,-99.99,WSDL version 420,2013-02-12 07:44:00,
2013-02-12 00:49:00,22.8,9.4,-100.00,North,-999,-999.0,-999.0,52,-99.99,,,-99.99,WSDL version 420,2013-02-12 07:49:00,
2013-02-12 00:54:00,22.8,9.4,-100.00,North,-999,-999.0,-999.0,52,-99.99,,,-99.99,WSDL version 420,2013-02-12 07:54:00,
2013-02-12 00:59:00,22.6,9.4,-100.00,North,-999,-999.0,-999.0,53,-99.99,,,-99.99,WSDL version 420,2013-02-12 07:59:00,
2013-02-12 01:13:00,22.6,9.6,-100.00,North,-999,-999.0,-999.0,53,-99.99,,,-99.99,WSDL version 420,2013-02-12 08:13:00,
2013-02-12 01:18:00,22.5,9.5,-100.00,North,-999,-999.0,-999.0,53,-99.99,,,-99.99,WSDL version 420,2013-02-12 08:18:00,
2013-02-12 01:23:00,22.5,9.5,-100.00,North,-999,-999.0,-999.0,53,-99.99,,,-99.99,WSDL version 420,2013-02-12 08:23:00,
2013-02-12 01:28:00,22.5,9.5,-100.00,North,-999,-999.0,-999.0,53,-99.99,,,-99.99,WSDL version 420,2013-02-12 08:28:00,
2013-02-12 01:33:00,22.5,9.5,-100.00,North,-999,-999.0,-999.0,53,-99.99,,,-99.99,WSDL version 420,2013-02-12 08:33:00,
2013-02-12 01:38:00,22.5,9.5,-100.00,North,-999,-999.0,-999.0,53,-99.99,,,-99.99,WSDL version 420,2013-02-12 08:38:00,
2013-02-12 01:43:00,22.3,9.3,-100.00,North,-999,-999.0,-999.0,53,-99.99,,,-99.99,WSDL version 420,2013-02-12 08:43:00,
2013-02-12 01:48:00,22.5,9.5,-100.00,North,-999,-999.0,-999.0,53,-99.99,,,-99.99,WSDL version 420,2013-02-12 08:48:00,
2013-02-12 01:53:00,22.5,9.5,-100.00,North,-999,-999.0,-999.0,53,-99.99,,,-99.99,WSDL version 420,2013-02-12 08:53:00,
2013-02-12 01:58:00,22.5,9.5,-100.00,North,-999,-999.0,-999.0,53,-99.99,,,-99.99,WSDL version 420,2013-02-12 08:58:00,
2013-02-12 02:13:00,22.5,9.5,-100.00,North,-999,-999.0,-999.0,53,-99.99,,,-99.99,WSDL version 420,2013-02-12 09:13:00,
2013-02-12 02:18:00,22.5,9.5,-100.00,North,-999,-999.0,-999.0,53,-99.99,,,-99.99,WSDL version 420,2013-02-12 09:18:00,
2013-02-12 02:24:00,22.3,9.3,-100.00,North,-999,-999.0,-999.0,53,-99.99,,,-99.99,WSDL version 420,2013-02-12 09:24:00,
2013-02-12 02:29:00,22.3,9.3,-100.00,North,-999,-999.0,-999.0,53,-99.99,,,-99.99,WSDL version 420,2013-02-12 09:29:00,
2013-02-12 02:34:00,22.3,9.3,-100.00,North,-999,-999.0,-999.0,53,-99.99,,,-99.99,WSDL version 420,2013-02-12 09:34:00,
2013-02-12 02:39:00,22.2,9.2,-100.00,North,-999,-999.0,-999.0,53,-99.99,,,-99.99,WSDL version 420,2013-02-12 09:39:00,
2013-02-12 02:44:00,22.1,9.1,-100.00,North,-999,-999.0,-999.0,53,-99.99,,,-99.99,WSDL version 420,2013-02-12 09:44:00,
2013-02-12 02:49:00,22.1,9.1,-100.00,North,-999,-999.0,-999.0,53,-99.99,,,-99.99,WSDL version 420,2013-02-12 09:49:00,
2013-02-12 02:54:00,22.1,9.1,-100.00,North,-999,-999.0,-999.0,53,-99.99,,,-99.99,WSDL version 420,2013-02-12 09:54:00,
2013-02-12 02:59:00,22.1,9.1,-100.00,North,-999,-999.0,-999.0,53,-99.99,,,-99.99,WSDL version 420,2013-02-12 09:59:00,
2013-02-12 03:13:00,22.3,9.3,-100.00,North,-999,-999.0,-999.0,53,-99.99,,,-99.99,WSDL version 420,2013-02-12 10:13:00,
2013-02-12 03:18:00,22.3,9.3,-100.00,North,-999,-999.0,-999.0,53,-99.99,,,-99.99,WSDL version 420,2013-02-12 10:18:00,
2013-02-12 03:23:00,22.3,9.3,-100.00,North,-999,-999.0,-999.0,53,-99.99,,,-99.99,WSDL version 420,2013-02-12 10:23:00,
2013-02-12 03:28:00,22.3,9.3,-100.00,North,-999,-999.0,-999.0,53,-99.99,,,-99.99,WSDL version 420,2013-02-12 10:28:00,
2013-02-12 03:34:00,22.2,9.3,-100.00,North,-999,-999.0,-999.0,53,-99.99,,,-99.99,WSDL version 420,2013-02-12 10:34:00,
2013-02-12 03:39:00,22.0,9.1,-100.00,North,-999,-999.0,-999.0,53,-99.99,,,-99.99,WSDL version 420,2013-02-12 10:39:00,
2013-02-12 03:45:00,21.9,9.0,-100.00,North,-999,-999.0,-999.0,53,-99.99,,,-99.99,WSDL version 420,2013-02-12 10:45:00,
2013-02-12 03:50:00,21.8,8.8,-100.00,North,-999,-999.0,-999.0,53,-99.99,,,-99.99,WSDL version 420,2013-02-12 10:50:00,
2013-02-12 03:55:00,21.6,8.6,-100.00,North,-999,-999.0,-999.0,53,-99.99,,,-99.99,WSDL version 420,2013-02-12 10:55:00,
2013-02-12 04:00:00,21.4,8.6,-100.00,North,-999,-999.0,-999.0,54,-99.99,,,-99.99,WSDL version 420,2013-02-12 11:00:00,
2013-02-12 04:05:00,21.6,9.0,-100.00,North,-999,-999.0,-999.0,54,-99.99,,,-99.99,WSDL version 420,2013-02-12 11:05:00,
2013-02-12 04:10:00,21.5,9.0,-100.00,North,-999,-999.0,-999.0,54,-99.99,,,-99.99,WSDL version 420,2013-02-12 11:10:00,
2013-02-12 04:15:00,21.3,8.8,-100.00,North,-999,-999.0,-999.0,54,-99.99,,,-99.99,WSDL version 420,2013-02-12 11:15:00,
2013-02-12 04:20:00,21.2,8.7,-100.00,North,-999,-999.0,-999.0,54,-99.99,,,-99.99,WSDL version 420,2013-02-12 11:20:00,
2013-02-12 04:26:00,21.2,8.7,-100.00,North,-999,-999.0,-999.0,54,-99.99,,,-99.99,WSDL version 420,2013-02-12 11:26:00,
2013-02-12 04:31:00,21.2,8.7,-100.00,North,-999,-999.0,-999.0,54,-99.99,,,-99.99,WSDL version 420,2013-02-12 11:31:00,
2013-02-12 04:37:00,21.2,8.7,-100.00,North,-999,-999.0,-999.0,54,-99.99,,,-99.99,WSDL version 420,2013-02-12 11:37:00,
2013-02-12 04:42:00,21.3,8.7,-100.00,North,-999,-999.0,-999.0,54,-99.99,,,-99.99,WSDL version 420,2013-02-12 11:42:00,
2013-02-12 04:48:00,21.4,8.8,-100.00,North,-999,-999.0,-999.0,54,-99.99,,,-99.99,WSDL version 420,2013-02-12 11:48:00,
2013-02-12 04:53:00,21.3,8.7,-100.00,North,-999,-999.0,-999.0,54,-99.99,,,-99.99,WSDL version 420,2013-02-12 11:53:00,
2013-02-12 04:58:00,21.2,9.0,-100.00,North,-999,-999.0,-999.0,55,-99.99,,,-99.99,WSDL version 420,2013-02-12 11:58:00,
2013-02-12 05:03:00,21.2,9.0,-100.00,North,-999,-999.0,-999.0,55,-99.99,,,-99.99,WSDL version 420,2013-02-12 12:03:00,
2013-02-12 05:08:00,21.2,9.0,-100.00,North,-999,-999.0,-999.0,55,-99.99,,,-99.99,WSDL version 420,2013-02-12 12:08:00,
2013-02-12 05:14:00,21.4,8.8,-100.00,North,-999,-999.0,-999.0,54,-99.99,,,-99.99,WSDL version 420,2013-02-12 12:14:00,
2013-02-12 05:20:00,21.4,8.8,-100.00,North,-999,-999.0,-999.0,54,-99.99,,,-99.99,WSDL version 420,2013-02-12 12:20:00,
2013-02-12 05:25:00,21.4,8.8,-100.00,North,-999,-999.0,-999.0,54,-99.99,,,-99.99,WSDL version 420,2013-02-12 12:25:00,
2013-02-12 05:30:00,21.4,8.8,-100.00,North,-999,-999.0,-999.0,54,-99.99,,,-99.99,WSDL version 420,2013-02-12 12:30:00,
2013-02-12 05:35:00,21.4,8.8,-100.00,North,-999,-999.0,-999.0,54,-99.99,,,-99.99,WSDL version 420,2013-02-12 12:35:00,
2013-02-12 05:40:00,21.4,8.8,-100.00,North,-999,-999.0,-999.0,54,-99.99,,,-99.99,WSDL version 420,2013-02-12 12:40:00,
2013-02-12 05:45:00,21.4,8.8,-100.00,North,-999,-999.0,-999.0,54,-99.99,,,-99.99,WSDL version 420,2013-02-12 12:45:00,
2013-02-12 05:50:00,21.4,8.8,-100.00,North,-999,-999.0,-999.0,54,-99.99,,,-99.99,WSDL version 420,2013-02-12 12:50:00,
2013-02-12 05:55:00,21.4,9.0,-100.00,North,-999,-999.0,-999.0,55,-99.99,,,-99.99,WSDL version 420,2013-02-12 12:55:00,
2013-02-12 06:00:00,21.4,9.0,-100.00,North,-999,-999.0,-999.0,55,-99.99,,,-99.99,WSDL version 420,2013-02-12 13:00:00,
2013-02-12 06:05:00,21.4,9.2,-100.00,North,-999,-999.0,-999.0,55,-99.99,,,-99.99,WSDL version 420,2013-02-12 13:05:00,
2013-02-12 06:10:00,21.6,9.4,-100.00,North,-999,-999.0,-999.0,55,-99.99,,,-99.99,WSDL version 420,2013-02-12 13:10:00,
2013-02-12 06:15:00,21.7,9.5,-100.00,North,-999,-999.0,-999.0,55,-99.99,,,-99.99,WSDL version 420,2013-02-12 13:15:00,
2013-02-12 06:21:00,21.7,9.5,-100.00,North,-999,-999.0,-999.0,55,-99.99,,,-99.99,WSDL version 420,2013-02-12 13:21:00,
2013-02-12 06:27:00,21.8,9.6,-100.00,North,-999,-999.0,-999.0,55,-99.99,,,-99.99,WSDL version 420,2013-02-12 13:27:00,
2013-02-12 06:32:00,21.9,9.7,-100.00,North,-999,-999.0,-999.0,55,-99.99,,,-99.99,WSDL version 420,2013-02-12 13:32:00,
2013-02-12 06:37:00,21.9,9.7,-100.00,North,-999,-999.0,-999.0,55,-99.99,,,-99.99,WSDL version 420,2013-02-12 13:37:00,
2013-02-12 06:42:00,22.1,9.9,-100.00,North,-999,-999.0,-999.0,55,-99.99,,,-99.99,WSDL version 420,2013-02-12 13:42:00,
2013-02-12 06:47:00,22.1,9.9,-100.00,North,-999,-999.0,-999.0,55,-99.99,,,-99.99,WSDL version 420,2013-02-12 13:47:00,
2013-02-12 06:52:00,22.1,9.9,-100.00,North,-999,-999.0,-999.0,55,-99.99,,,-99.99,WSDL version 420,2013-02-12 13:52:00,
2013-02-12 06:58:00,22.3,10.0,-100.00,North,-999,-999.0,-999.0,55,-99.99,,,-99.99,WSDL version 420,2013-02-12 13:58:00,
2013-02-12 07:03:00,22.3,10.0,-100.00,North,-999,-999.0,-999.0,55,-99.99,,,-99.99,WSDL version 420,2013-02-12 14:03:00,
2013-02-12 07:08:00,22.3,10.0,-100.00,North,-999,-999.0,-999.0,55,-99.99,,,-99.99,WSDL version 420,2013-02-12 14:08:00,
2013-02-12 07:13:00,22.3,10.0,-100.00,North,-999,-999.0,-999.0,55,-99.99,,,-99.99,WSDL version 420,2013-02-12 14:13:00,
2013-02-12 07:18:00,22.3,10.0,-100.00,North,-999,-999.0,-999.0,55,-99.99,,,-99.99,WSDL version 420,2013-02-12 14:18:00,
2013-02-12 07:24:00,22.3,10.0,-100.00,North,-999,-999.0,-999.0,55,-99.99,,,-99.99,WSDL version 420,2013-02-12 14:24:00,
2013-02-12 07:29:00,22.3,10.0,-100.00,North,-999,-999.0,-999.0,55,-99.99,,,-99.99,WSDL version 420,2013-02-12 14:29:00,
2013-02-12 07:34:00,22.4,10.1,-100.00,North,-999,-999.0,-999.0,55,-99.99,,,-99.99,WSDL version 420,2013-02-12 14:34:00,
2013-02-12 07:40:00,22.5,10.3,-100.00,North,-999,-999.0,-999.0,55,-99.99,,,-99.99,WSDL version 420,2013-02-12 14:40:00,
2013-02-12 07:46:00,22.8,10.5,-100.00,North,-999,-999.0,-999.0,55,-99.99,,,-99.99,WSDL version 420,2013-02-12 14:46:00,
2013-02-12 07:51:00,22.9,10.6,-100.00,North,-999,-999.0,-999.0,55,-99.99,,,-99.99,WSDL version 420,2013-02-12 14:51:00,
2013-02-12 07:56:00,23.1,10.7,-100.00,North,-999,-999.0,-999.0,54,-99.99,,,-99.99,WSDL version 420,2013-02-12 14:56:00,
2013-02-12 08:01:00,23.3,10.6,-100.00,North,-999,-999.0,-999.0,54,-99.99,,,-99.99,WSDL version 420,2013-02-12 15:01:00,
2013-02-12 08:06:00,23.5,10.8,-100.00,North,-999,-999.0,-999.0,54,-99.99,,,-99.99,WSDL version 420,2013-02-12 15:06:00,
2013-02-12 08:11:00,23.6,11.0,-100.00,North,-999,-999.0,-999.0,54,-99.99,,,-99.99,WSDL version 420,2013-02-12 15:11:00,
2013-02-12 08:16:00,23.9,11.2,-100.00,North,-999,-999.0,-999.0,54,-99.99,,,-99.99,WSDL version 420,2013-02-12 15:16:00,
2013-02-12 08:21:00,24.1,11.4,-100.00,North,-999,-999.0,-999.0,54,-99.99,,,-99.99,WSDL version 420,2013-02-12 15:21:00,
2013-02-12 08:26:00,24.3,11.6,-100.00,North,-999,-999.0,-999.0,54,-99.99,,,-99.99,WSDL version 420,2013-02-12 15:26:00,
2013-02-12 08:31:00,24.5,11.7,-100.00,North,-999,-999.0,-999.0,54,-99.99,,,-99.99,WSDL version 420,2013-02-12 15:31:00,
2013-02-12 08:36:00,24.7,12.0,-100.00,North,-999,-999.0,-999.0,54,-99.99,,,-99.99,WSDL version 420,2013-02-12 15:36:00,
2013-02-12 08:41:00,24.9,12.2,-100.00,North,-999,-999.0,-999.0,54,-99.99,,,-99.99,WSDL version 420,2013-02-12 15:41:00,
2013-02-12 08:46:00,25.1,12.3,-100.00,North,-999,-999.0,-999.0,54,-99.99,,,-99.99,WSDL version 420,2013-02-12 15:46:00,
2013-02-12 08:51:00,25.3,12.6,-100.00,North,-999,-999.0,-999.0,54,-99.99,,,-99.99,WSDL version 420,2013-02-12 15:51:00,
2013-02-12 08:56:00,25.4,12.3,-100.00,North,-999,-999.0,-999.0,53,-99.99,,,-99.99,WSDL version 420,2013-02-12 15:56:00,
2013-02-12 09:01:00,25.6,12.5,-100.00,North,-999,-999.0,-999.0,53,-99.99,,,-99.99,WSDL version 420,2013-02-12 16:01:00,
2013-02-12 09:13:00,26.2,13.0,-100.00,North,-999,-999.0,-999.0,53,-99.99,,,-99.99,WSDL version 420,2013-02-12 16:13:00,
2013-02-12 09:19:00,26.5,13.3,-100.00,North,-999,-999.0,-999.0,53,-99.99,,,-99.99,WSDL version 420,2013-02-12 16:19:00,
2013-02-12 09:24:00,26.8,13.6,-100.00,North,-999,-999.0,-999.0,53,-99.99,,,-99.99,WSDL version 420,2013-02-12 16:24:00,
2013-02-12 09:29:00,27.1,13.9,-100.00,North,-999,-999.0,-999.0,53,-99.99,,,-99.99,WSDL version 420,2013-02-12 16:29:00,
2013-02-12 09:34:00,27.5,14.3,-100.00,North,-999,-999.0,-999.0,53,-99.99,,,-99.99,WSDL version 420,2013-02-12 16:34:00,
2013-02-12 09:39:00,27.7,14.2,-100.00,North,-999,-999.0,-999.0,52,-99.99,,,-99.99,WSDL version 420,2013-02-12 16:39:00,
2013-02-12 09:44:00,27.9,14.3,-100.00,North,-999,-999.0,-999.0,52,-99.99,,,-99.99,WSDL version 420,2013-02-12 16:44:00,
2013-02-12 09:49:00,28.0,14.4,-100.00,North,-999,-999.0,-999.0,52,-99.99,,,-99.99,WSDL version 420,2013-02-12 16:49:00,
2013-02-12 09:54:00,28.1,14.4,-100.00,North,-999,-999.0,-999.0,52,-99.99,,,-99.99,WSDL version 420,2013-02-12 16:54:00,
2013-02-12 09:59:00,28.5,14.8,-100.00,North,-999,-999.0,-999.0,52,-99.99,,,-99.99,WSDL version 420,2013-02-12 16:59:00,
2013-02-12 10:05:00,28.7,15.0,-100.00,North,-999,-999.0,-999.0,52,-99.99,,,-99.99,WSDL version 420,2013-02-12 17:05:00,
2013-02-12 10:10:00,29.2,15.2,-100.00,North,-999,-999.0,-999.0,52,-99.99,,,-99.99,WSDL version 420,2013-02-12 17:10:00,
2013-02-12 10:16:00,29.6,15.9,-100.00,North,-999,-999.0,-999.0,52,-99.99,,,-99.99,WSDL version 420,2013-02-12 17:16:00,
2013-02-12 10:21:00,29.9,15.9,-100.00,North,-999,-999.0,-999.0,51,-99.99,,,-99.99,WSDL version 420,2013-02-12 17:21:00,
2013-02-12 10:26:00,29.9,15.7,-100.00,North,-999,-999.0,-999.0,51,-99.99,,,-99.99,WSDL version 420,2013-02-12 17:26:00,
2013-02-12 10:31:00,30.2,16.0,-100.00,North,-999,-999.0,-999.0,51,-99.99,,,-99.99,WSDL version 420,2013-02-12 17:31:00,
2013-02-12 10:36:00,31.1,16.8,-100.00,North,-999,-999.0,-999.0,51,-99.99,,,-99.99,WSDL version 420,2013-02-12 17:36:00,
2013-02-12 10:41:00,32.1,16.8,-100.00,North,-999,-999.0,-999.0,51,-99.99,,,-99.99,WSDL version 420,2013-02-12 17:41:00,
2013-02-12 10:46:00,32.6,16.2,-100.00,North,-999,-999.0,-999.0,50,-99.99,,,-99.99,WSDL version 420,2013-02-12 17:46:00,
2013-02-12 10:51:00,32.5,15.8,-100.00,North,-999,-999.0,-999.0,50,-99.99,,,-99.99,WSDL version 420,2013-02-12 17:51:00,
2013-02-12 10:56:00,32.2,15.5,-100.00,North,-999,-999.0,-999.0,50,-99.99,,,-99.99,WSDL version 420,2013-02-12 17:56:00,
2013-02-12 11:01:00,32.5,16.0,-100.00,North,-999,-999.0,-999.0,50,-99.99,,,-99.99,WSDL version 420,2013-02-12 18:01:00,
2013-02-12 11:06:00,33.0,16.4,-100.00,North,-999,-999.0,-999.0,50,-99.99,,,-99.99,WSDL version 420,2013-02-12 18:06:00,
2013-02-12 11:11:00,33.7,16.7,-100.00,North,-999,-999.0,-999.0,49,-99.99,,,-99.99,WSDL version 420,2013-02-12 18:11:00,
2013-02-12 11:16:00,34.7,17.1,-100.00,North,-999,-999.0,-999.0,48,-99.99,,,-99.99,WSDL version 420,2013-02-12 18:16:00,
2013-02-12 11:22:00,35.4,17.4,-100.00,North,-999,-999.0,-999.0,48,-99.99,,,-99.99,WSDL version 420,2013-02-12 18:22:00,
2013-02-12 11:27:00,36.4,18.6,-100.00,North,-999,-999.0,-999.0,48,-99.99,,,-99.99,WSDL version 420,2013-02-12 18:27:00,
2013-02-12 11:33:00,37.3,19.1,-100.00,North,-999,-999.0,-999.0,47,-99.99,,,-99.99,WSDL version 420,2013-02-12 18:33:00,
2013-02-12 11:38:00,37.7,19.2,-100.00,North,-999,-999.0,-999.0,47,-99.99,,,-99.99,WSDL version 420,2013-02-12 18:38:00,
2013-02-12 11:43:00,38.1,19.5,-100.00,North,-999,-999.0,-999.0,47,-99.99,,,-99.99,WSDL version 420,2013-02-12 18:43:00,
2013-02-12 11:48:00,38.6,19.8,-100.00,North,-999,-999.0,-999.0,46,-99.99,,,-99.99,WSDL version 420,2013-02-12 18:48:00,
2013-02-12 11:53:00,38.8,20.0,-100.00,North,-999,-999.0,-999.0,47,-99.99,,,-99.99,WSDL version 420,2013-02-12 18:53:00,
2013-02-12 11:58:00,39.3,20.1,-100.00,North,-999,-999.0,-999.0,45,-99.99,,,-99.99,WSDL version 420,2013-02-12 18:58:00,
2013-02-12 12:03:00,39.0,19.4,-100.00,North,-999,-999.0,-999.0,45,-99.99,,,-99.99,WSDL version 420,2013-02-12 19:03:00,
2013-02-12 12:08:00,39.2,20.0,-100.00,North,-999,-999.0,-999.0,46,-99.99,,,-99.99,WSDL version 420,2013-02-12 19:08:00,
2013-02-12 12:14:00,39.7,20.1,-100.00,North,-999,-999.0,-999.0,45,-99.99,,,-99.99,WSDL version 420,2013-02-12 19:14:00,
2013-02-12 12:19:00,39.7,20.1,-100.00,North,-999,-999.0,-999.0,45,-99.99,,,-99.99,WSDL version 420,2013-02-12 19:19:00,
2013-02-12 12:24:00,39.9,20.3,-100.00,North,-999,-999.0,-999.0,45,-99.99,,,-99.99,WSDL version 420,2013-02-12 19:24:00,
2013-02-12 12:29:00,40.4,21.2,-100.00,North,-999,-999.0,-999.0,46,-99.99,,,-99.99,WSDL version 420,2013-02-12 19:29:00,
2013-02-12 12:34:00,41.0,21.4,-100.00,North,-999,-999.0,-999.0,45,-99.99,,,-99.99,WSDL version 420,2013-02-12 19:34:00,
2013-02-12 12:39:00,40.7,20.6,-100.00,North,-999,-999.0,-999.0,45,-99.99,,,-99.99,WSDL version 420,2013-02-12 19:39:00,
2013-02-12 12:44:00,40.0,19.9,-100.00,North,-999,-999.0,-999.0,44,-99.99,,,-99.99,WSDL version 420,2013-02-12 19:44:00,
2013-02-12 12:49:00,39.6,19.5,-100.00,North,-999,-999.0,-999.0,44,-99.99,,,-99.99,WSDL version 420,2013-02-12 19:49:00,
2013-02-12 12:54:00,39.8,20.2,-100.00,North,-999,-999.0,-999.0,45,-99.99,,,-99.99,WSDL version 420,2013-02-12 19:54:00,
2013-02-12 12:59:00,40.1,20.5,-100.00,North,-999,-999.0,-999.0,45,-99.99,,,-99.99,WSDL version 420,2013-02-12 19:59:00,
2013-02-12 13:05:00,39.9,19.8,-100.00,North,-999,-999.0,-999.0,44,-99.99,,,-99.99,WSDL version 420,2013-02-12 20:05:00,
2013-02-12 13:10:00,39.6,19.5,-100.00,North,-999,-999.0,-999.0,44,-99.99,,,-99.99,WSDL version 420,2013-02-12 20:10:00,
2013-02-12 13:15:00,39.8,19.8,-100.00,North,-999,-999.0,-999.0,44,-99.99,,,-99.99,WSDL version 420,2013-02-12 20:15:00,
2013-02-12 13:20:00,39.9,19.7,-100.00,North,-999,-999.0,-999.0,44,-99.99,,,-99.99,WSDL version 420,2013-02-12 20:20:00,
2013-02-12 13:25:00,40.2,20.0,-100.00,North,-999,-999.0,-999.0,44,-99.99,,,-99.99,WSDL version 420,2013-02-12 20:25:00,
2013-02-12 13:30:00,40.6,20.6,-100.00,North,-999,-999.0,-999.0,45,-99.99,,,-99.99,WSDL version 420,2013-02-12 20:30:00,
2013-02-12 13:35:00,41.1,20.8,-100.00,North,-999,-999.0,-999.0,44,-99.99,,,-99.99,WSDL version 420,2013-02-12 20:35:00,
2013-02-12 13:40:00,41.1,20.3,-100.00,North,-999,-999.0,-999.0,43,-99.99,,,-99.99,WSDL version 420,2013-02-12 20:40:00,
2013-02-12 13:45:00,41.1,20.3,-100.00,North,-999,-999.0,-999.0,43,-99.99,,,-99.99,WSDL version 420,2013-02-12 20:45:00,
2013-02-12 13:50:00,41.1,20.3,-100.00,North,-999,-999.0,-999.0,43,-99.99,,,-99.99,WSDL version 420,2013-02-12 20:50:00,
2013-02-12 13:55:00,41.5,21.1,-100.00,North,-999,-999.0,-999.0,44,-99.99,,,-99.99,WSDL version 420,2013-02-12 20:55:00,
2013-02-12 14:00:00,41.7,21.4,-100.00,North,-999,-999.0,-999.0,44,-99.99,,,-99.99,WSDL version 420,2013-02-12 21:00:00,
2013-02-12 14:05:00,41.6,21.0,-100.00,North,-999,-999.0,-999.0,44,-99.99,,,-99.99,WSDL version 420,2013-02-12 21:05:00,
2013-02-12 14:10:00,41.9,21.2,-100.00,North,-999,-999.0,-999.0,43,-99.99,,,-99.99,WSDL version 420,2013-02-12 21:10:00,
2013-02-12 14:15:00,42.3,21.4,-100.00,North,-999,-999.0,-999.0,43,-99.99,,,-99.99,WSDL version 420,2013-02-12 21:15:00,
2013-02-12 14:20:00,42.3,21.4,-100.00,North,-999,-999.0,-999.0,43,-99.99,,,-99.99,WSDL version 420,2013-02-12 21:20:00,
2013-02-12 14:25:00,42.2,21.6,-100.00,North,-999,-999.0,-999.0,44,-99.99,,,-99.99,WSDL version 420,2013-02-12 21:25:00,
2013-02-12 14:30:00,42.0,21.4,-100.00,North,-999,-999.0,-999.0,43,-99.99,,,-99.99,WSDL version 420,2013-02-12 21:30:00,
2013-02-12 14:35:00,41.6,20.8,-100.00,North,-999,-999.0,-999.0,43,-99.99,,,-99.99,WSDL version 420,2013-02-12 21:35:00,
2013-02-12 14:40:00,41.5,20.8,-100.00,North,-999,-999.0,-999.0,44,-99.99,,,-99.99,WSDL version 420,2013-02-12 21:40:00,
2013-02-12 14:45:00,41.7,21.4,-100.00,North,-999,-999.0,-999.0,44,-99.99,,,-99.99,WSDL version 420,2013-02-12 21:45:00,
2013-02-12 14:50:00,41.8,21.5,-100.00,North,-999,-999.0,-999.0,44,-99.99,,,-99.99,WSDL version 420,2013-02-12 21:50:00,
2013-02-12 14:55:00,41.9,21.6,-100.00,North,-999,-999.0,-999.0,44,-99.99,,,-99.99,WSDL version 420,2013-02-12 21:55:00,
2013-02-12 15:00:00,42.1,21.7,-100.00,North,-999,-999.0,-999.0,44,-99.99,,,-99.99,WSDL version 420,2013-02-12 22:00:00,
2013-02-12 15:13:00,41.6,20.9,-100.00,North,-999,-999.0,-999.0,43,-99.99,,,-99.99,WSDL version 420,2013-02-12 22:13:00,
2013-02-12 15:18:00,41.3,20.5,-100.00,North,-999,-999.0,-999.0,43,-99.99,,,-99.99,WSDL version 420,2013-02-12 22:18:00,
2013-02-12 15:23:00,41.2,20.4,-100.00,North,-999,-999.0,-999.0,43,-99.99,,,-99.99,WSDL version 420,2013-02-12 22:23:00,
2013-02-12 15:28:00,41.2,20.9,-100.00,North,-999,-999.0,-999.0,44,-99.99,,,-99.99,WSDL version 420,2013-02-12 22:28:00,
2013-02-12 15:33:00,41.2,20.9,-100.00,North,-999,-999.0,-999.0,44,-99.99,,,-99.99,WSDL version 420,2013-02-12 22:33:00,
2013-02-12 15:38:00,41.1,20.8,-100.00,North,-999,-999.0,-999.0,44,-99.99,,,-99.99,WSDL version 420,2013-02-12 22:38:00,
2013-02-12 15:43:00,41.0,20.8,-100.00,North,-999,-999.0,-999.0,44,-99.99,,,-99.99,WSDL version 420,2013-02-12 22:43:00,
2013-02-12 15:48:00,41.0,20.7,-100.00,North,-999,-999.0,-999.0,44,-99.99,,,-99.99,WSDL version 420,2013-02-12 22:48:00,
2013-02-12 15:54:00,41.0,20.7,-100.00,North,-999,-999.0,-999.0,44,-99.99,,,-99.99,WSDL version 420,2013-02-12 22:54:00,
2013-02-12 15:59:00,41.0,20.8,-100.00,North,-999,-999.0,-999.0,44,-99.99,,,-99.99,WSDL version 420,2013-02-12 22:59:00,
2013-02-12 16:04:00,40.8,20.6,-100.00,North,-999,-999.0,-999.0,44,-99.99,,,-99.99,WSDL version 420,2013-02-12 23:04:00,
2013-02-12 16:09:00,40.4,20.3,-100.00,North,-999,-999.0,-999.0,44,-99.99,,,-99.99,WSDL version 420,2013-02-12 23:09:00,
2013-02-12 16:14:00,40.0,19.9,-100.00,North,-999,-999.0,-999.0,44,-99.99,,,-99.99,WSDL version 420,2013-02-12 23:14:00,
2013-02-12 16:19:00,39.6,19.5,-100.00,North,-999,-999.0,-999.0,44,-99.99,,,-99.99,WSDL version 420,2013-02-12 23:19:00,
2013-02-12 16:24:00,39.4,19.3,-100.00,North,-999,-999.0,-999.0,44,-99.99,,,-99.99,WSDL version 420,2013-02-12 23:24:00,
2013-02-12 16:29:00,39.1,19.2,-100.00,North,-999,-999.0,-999.0,45,-99.99,,,-99.99,WSDL version 420,2013-02-12 23:29:00,
2013-02-12 16:34:00,38.8,19.3,-100.00,North,-999,-999.0,-999.0,45,-99.99,,,-99.99,WSDL version 420,2013-02-12 23:34:00,
2013-02-12 16:39:00,38.6,19.1,-100.00,North,-999,-999.0,-999.0,45,-99.99,,,-99.99,WSDL version 420,2013-02-12 23:39:00,
2013-02-12 16:44:00,38.2,18.8,-100.00,North,-999,-999.0,-999.0,45,-99.99,,,-99.99,WSDL version 420,2013-02-12 23:44:00,
2013-02-12 16:49:00,37.9,18.5,-100.00,North,-999,-999.0,-999.0,45,-99.99,,,-99.99,WSDL version 420,2013-02-12 23:49:00,
2013-02-12 16:54:00,37.7,18.3,-100.00,North,-999,-999.0,-999.0,45,-99.99,,,-99.99,WSDL version 420,2013-02-12 23:54:00,
2013-02-12 16:59:00,37.4,18.0,-100.00,North,-999,-999.0,-999.0,45,-99.99,,,-99.99,WSDL version 420,2013-02-12 23:59:00,
2013-02-12 17:04:00,37.1,17.7,-100.00,North,-999,-999.0,-999.0,45,-99.99,,,-99.99,WSDL version 420,2013-02-13 00:04:00,
2013-02-12 17:09:00,36.7,17.4,-100.00,North,-999,-999.0,-999.0,45,-99.99,,,-99.99,WSDL version 420,2013-02-13 00:09:00,
2013-02-12 17:14:00,36.4,17.1,-100.00,North,-999,-999.0,-999.0,45,-99.99,,,-99.99,WSDL version 420,2013-02-13 00:14:00,
2013-02-12 17:19:00,36.2,16.9,-100.00,North,-999,-999.0,-999.0,45,-99.99,,,-99.99,WSDL version 420,2013-02-13 00:19:00,
2013-02-12 17:24:00,36.0,16.7,-100.00,North,-999,-999.0,-999.0,45,-99.99,,,-99.99,WSDL version 420,2013-02-13 00:24:00,
2013-02-12 17:29:00,35.7,16.4,-100.00,North,-999,-999.0,-999.0,45,-99.99,,,-99.99,WSDL version 420,2013-02-13 00:29:00,
2013-02-12 17:34:00,35.5,16.3,-100.00,North,-999,-999.0,-999.0,45,-99.99,,,-99.99,WSDL version 420,2013-02-13 00:34:00,
2013-02-12 17:39:00,35.3,16.1,-100.00,North,-999,-999.0,-999.0,45,-99.99,,,-99.99,WSDL version 420,2013-02-13 00:39:00,
2013-02-12 17:44:00,35.1,15.9,-100.00,North,-999,-999.0,-999.0,45,-99.99,,,-99.99,WSDL version 420,2013-02-13 00:44:00,
2013-02-12 17:49:00,34.9,15.7,-100.00,North,-999,-999.0,-999.0,45,-99.99,,,-99.99,WSDL version 420,2013-02-13 00:49:00,
2013-02-12 17:54:00,34.9,15.7,-100.00,North,-999,-999.0,-999.0,45,-99.99,,,-99.99,WSDL version 420,2013-02-13 00:54:00,
2013-02-12 17:59:00,34.7,15.6,-100.00,North,-999,-999.0,-999.0,45,-99.99,,,-99.99,WSDL version 420,2013-02-13 00:59:00,
2013-02-12 18:04:00,34.6,15.4,-100.00,North,-999,-999.0,-999.0,45,-99.99,,,-99.99,WSDL version 420,2013-02-13 01:04:00,
2013-02-12 18:09:00,34.5,15.4,-100.00,North,-999,-999.0,-999.0,45,-99.99,,,-99.99,WSDL version 420,2013-02-13 01:09:00,
2013-02-12 18:14:00,34.5,15.4,-100.00,North,-999,-999.0,-999.0,45,-99.99,,,-99.99,WSDL version 420,2013-02-13 01:14:00,
2013-02-12 18:19:00,34.4,15.3,-100.00,North,-999,-999.0,-999.0,45,-99.99,,,-99.99,WSDL version 420,2013-02-13 01:19:00,
2013-02-12 18:24:00,34.3,15.2,-100.00,North,-999,-999.0,-999.0,45,-99.99,,,-99.99,WSDL version 420,2013-02-13 01:24:00,
2013-02-12 18:29:00,34.2,15.1,-100.00,North,-999,-999.0,-999.0,45,-99.99,,,-99.99,WSDL version 420,2013-02-13 01:29:00,
2013-02-12 18:34:00,34.0,14.9,-100.00,North,-999,-999.0,-999.0,45,-99.99,,,-99.99,WSDL version 420,2013-02-13 01:34:00,
2013-02-12 18:39:00,33.8,14.7,-100.00,North,-999,-999.0,-999.0,45,-99.99,,,-99.99,WSDL version 420,2013-02-13 01:39:00,
2013-02-12 18:44:00,33.6,15.0,-100.00,North,-999,-999.0,-999.0,46,-99.99,,,-99.99,WSDL version 420,2013-02-13 01:44:00,
2013-02-12 18:49:00,33.5,14.9,-100.00,North,-999,-999.0,-999.0,46,-99.99,,,-99.99,WSDL version 420,2013-02-13 01:49:00,
2013-02-12 18:54:00,33.3,14.7,-100.00,North,-999,-999.0,-999.0,46,-99.99,,,-99.99,WSDL version 420,2013-02-13 01:54:00,
2013-02-12 18:59:00,33.1,14.6,-100.00,North,-999,-999.0,-999.0,46,-99.99,,,-99.99,WSDL version 420,2013-02-13 01:59:00,
2013-02-12 19:04:00,33.0,14.5,-100.00,North,-999,-999.0,-999.0,46,-99.99,,,-99.99,WSDL version 420,2013-02-13 02:04:00,
2013-02-12 19:09:00,32.8,14.3,-100.00,North,-999,-999.0,-999.0,46,-99.99,,,-99.99,WSDL version 420,2013-02-13 02:09:00,
2013-02-12 19:14:00,32.7,14.2,-100.00,North,-999,-999.0,-999.0,46,-99.99,,,-99.99,WSDL version 420,2013-02-13 02:14:00,
2013-02-12 19:19:00,32.5,14.0,-100.00,North,-999,-999.0,-999.0,46,-99.99,,,-99.99,WSDL version 420,2013-02-13 02:19:00,
2013-02-12 19:24:00,32.2,13.8,-100.00,North,-999,-999.0,-999.0,46,-99.99,,,-99.99,WSDL version 420,2013-02-13 02:24:00,
2013-02-12 19:29:00,32.0,15.1,-100.00,North,-999,-999.0,-999.0,46,-99.99,,,-99.99,WSDL version 420,2013-02-13 02:29:00,
2013-02-12 19:34:00,31.8,15.4,-100.00,North,-999,-999.0,-999.0,46,-99.99,,,-99.99,WSDL version 420,2013-02-13 02:34:00,
2013-02-12 19:39:00,31.6,15.2,-100.00,North,-999,-999.0,-999.0,46,-99.99,,,-99.99,WSDL version 420,2013-02-13 02:39:00,
2013-02-12 19:44:00,31.4,15.0,-100.00,North,-999,-999.0,-999.0,46,-99.99,,,-99.99,WSDL version 420,2013-02-13 02:44:00,
2013-02-12 19:49:00,31.2,14.9,-100.00,North,-999,-999.0,-999.0,46,-99.99,,,-99.99,WSDL version 420,2013-02-13 02:49:00,
2013-02-12 19:54:00,31.1,14.8,-100.00,North,-999,-999.0,-999.0,46,-99.99,,,-99.99,WSDL version 420,2013-02-13 02:54:00,
2013-02-12 19:59:00,30.9,14.6,-100.00,North,-999,-999.0,-999.0,46,-99.99,,,-99.99,WSDL version 420,2013-02-13 02:59:00,
2013-02-12 20:04:00,30.8,14.5,-100.00,North,-999,-999.0,-999.0,46,-99.99,,,-99.99,WSDL version 420,2013-02-13 03:04:00,
2013-02-12 20:09:00,30.7,14.3,-100.00,North,-999,-999.0,-999.0,46,-99.99,,,-99.99,WSDL version 420,2013-02-13 03:09:00,
2013-02-12 20:14:00,30.5,14.2,-100.00,North,-999,-999.0,-999.0,46,-99.99,,,-99.99,WSDL version 420,2013-02-13 03:14:00,
2013-02-12 20:19:00,30.4,14.1,-100.00,North,-999,-999.0,-999.0,46,-99.99,,,-99.99,WSDL version 420,2013-02-13 03:19:00,
2013-02-12 20:24:00,30.2,14.3,-100.00,North,-999,-999.0,-999.0,47,-99.99,,,-99.99,WSDL version 420,2013-02-13 03:24:00,
2013-02-12 20:29:00,30.2,14.3,-100.00,North,-999,-999.0,-999.0,47,-99.99,,,-99.99,WSDL version 420,2013-02-13 03:29:00,
2013-02-12 20:34:00,30.2,14.3,-100.00,North,-999,-999.0,-999.0,47,-99.99,,,-99.99,WSDL version 420,2013-02-13 03:34:00,
2013-02-12 20:39:00,30.0,14.2,-100.00,North,-999,-999.0,-999.0,47,-99.99,,,-99.99,WSDL version 420,2013-02-13 03:39:00,
2013-02-12 20:44:00,30.0,14.2,-100.00,North,-999,-999.0,-999.0,47,-99.99,,,-99.99,WSDL version 420,2013-02-13 03:44:00,
2013-02-12 20:49:00,30.0,14.2,-100.00,North,-999,-999.0,-999.0,47,-99.99,,,-99.99,WSDL version 420,2013-02-13 03:49:00,
2013-02-12 20:54:00,30.0,14.2,-100.00,North,-999,-999.0,-999.0,47,-99.99,,,-99.99,WSDL version 420,2013-02-13 03:54:00,
2013-02-12 20:59:00,29.9,14.0,-100.00,North,-999,-999.0,-999.0,47,-99.99,,,-99.99,WSDL version 420,2013-02-13 03:59:00,
2013-02-12 21:13:00,29.8,14.0,-100.00,North,-999,-999.0,-999.0,47,-99.99,,,-99.99,WSDL version 420,2013-02-13 04:13:00,
2013-02-12 21:18:00,29.8,14.0,-100.00,North,-999,-999.0,-999.0,47,-99.99,,,-99.99,WSDL version 420,2013-02-13 04:18:00,
2013-02-12 21:23:00,29.8,14.0,-100.00,North,-999,-999.0,-999.0,47,-99.99,,,-99.99,WSDL version 420,2013-02-13 04:23:00,
2013-02-12 21:28:00,30.0,14.2,-100.00,North,-999,-999.0,-999.0,47,-99.99,,,-99.99,WSDL version 420,2013-02-13 04:28:00,
2013-02-12 21:33:00,30.3,14.6,-100.00,North,-999,-999.0,-999.0,47,-99.99,,,-99.99,WSDL version 420,2013-02-13 04:33:00,
2013-02-12 21:38:00,30.6,14.7,-100.00,North,-999,-999.0,-999.0,47,-99.99,,,-99.99,WSDL version 420,2013-02-13 04:38:00,
2013-02-12 21:43:00,30.7,14.9,-100.00,North,-999,-999.0,-999.0,47,-99.99,,,-99.99,WSDL version 420,2013-02-13 04:43:00,
2013-02-12 21:48:00,30.8,14.9,-100.00,North,-999,-999.0,-999.0,47,-99.99,,,-99.99,WSDL version 420,2013-02-13 04:48:00,
2013-02-12 21:53:00,30.9,15.0,-100.00,North,-999,-999.0,-999.0,47,-99.99,,,-99.99,WSDL version 420,2013-02-13 04:53:00,
2013-02-12 21:58:00,30.9,15.0,-100.00,North,-999,-999.0,-999.0,47,-99.99,,,-99.99,WSDL version 420,2013-02-13 04:58:00,
2013-02-12 22:00:00,30.9,15.0,-100.00,North,-999,-999.0,-999.0,47,-99.99,,,-99.99,WSDL version 420,2013-02-13 05:00:00,
2013-02-12 22:02:00,30.9,15.0,-100.00,North,-999,-999.0,-999.0,47,-99.99,,,-99.99,WSDL version 420,2013-02-13 05:02:00,
2013-02-12 22:04:00,30.8,14.9,-100.00,North,-999,-999.0,-999.0,47,-99.99,,,-99.99,WSDL version 420,2013-02-13 05:04:00,
2013-02-12 22:05:00,30.7,14.8,-100.00,North,-999,-999.0,-999.0,47,-99.99,,,-99.99,WSDL version 420,2013-02-13 05:05:00,
2013-02-12 22:10:00,30.5,14.2,-100.00,North,-999,-999.0,-999.0,46,-99.99,,,-99.99,WSDL version 420,2013-02-13 05:10:00,
2013-02-12 22:15:00,30.2,14.3,-100.00,North,-999,-999.0,-999.0,47,-99.99,,,-99.99,WSDL version 420,2013-02-13 05:15:00,
2013-02-12 22:20:00,30.2,14.3,-100.00,North,-999,-999.0,-999.0,47,-99.99,,,-99.99,WSDL version 420,2013-02-13 05:20:00,
2013-02-12 22:25:00,30.4,14.5,-100.00,North,-999,-999.0,-999.0,47,-99.99,,,-99.99,WSDL version 420,2013-02-13 05:25:00,
2013-02-12 22:30:00,30.4,14.5,-100.00,North,-999,-999.0,-999.0,47,-99.99,,,-99.99,WSDL version 420,2013-02-13 05:30:00,
2013-02-12 22:35:00,30.4,14.5,-100.00,North,-999,-999.0,-999.0,47,-99.99,,,-99.99,WSDL version 420,2013-02-13 05:35:00,
2013-02-12 22:40:00,30.4,14.5,-100.00,North,-999,-999.0,-999.0,47,-99.99,,,-99.99,WSDL version 420,2013-02-13 05:40:00,
2013-02-12 22:45:00,30.4,14.5,-100.00,North,-999,-999.0,-999.0,47,-99.99,,,-99.99,WSDL version 420,2013-02-13 05:45:00,
2013-02-12 22:50:00,30.5,14.6,-100.00,North,-999,-999.0,-999.0,47,-99.99,,,-99.99,WSDL version 420,2013-02-13 05:50:00,
2013-02-12 22:55:00,30.6,14.7,-100.00,North,-999,-999.0,-999.0,47,-99.99,,,-99.99,WSDL version 420,2013-02-13 05:55:00,
2013-02-12 23:00:00,30.7,14.9,-100.00,North,-999,-999.0,-999.0,47,-99.99,,,-99.99,WSDL version 420,2013-02-13 06:00:00,
2013-02-12 23:05:00,30.6,14.7,-100.00,North,-999,-999.0,-999.0,47,-99.99,,,-99.99,WSDL version 420,2013-02-13 06:05:00,
2013-02-12 23:10:00,30.4,14.6,-100.00,North,-999,-999.0,-999.0,47,-99.99,,,-99.99,WSDL version 420,2013-02-13 06:10:00,
2013-02-12 23:15:00,30.2,14.3,-100.00,North,-999,-999.0,-999.0,47,-99.99,,,-99.99,WSDL version 420,2013-02-13 06:15:00,
2013-02-12 23:20:00,30.1,14.2,-100.00,North,-999,-999.0,-999.0,47,-99.99,,,-99.99,WSDL version 420,2013-02-13 06:20:00,
2013-02-12 23:25:00,29.9,14.1,-100.00,North,-999,-999.0,-999.0,47,-99.99,,,-99.99,WSDL version 420,2013-02-13 06:25:00,
2013-02-12 23:30:00,29.8,14.0,-100.00,North,-999,-999.0,-999.0,47,-99.99,,,-99.99,WSDL version 420,2013-02-13 06:30:00,
2013-02-12 23:36:00,29.8,14.0,-100.00,North,-999,-999.0,-999.0,48,-99.99,,,-99.99,WSDL version 420,2013-02-13 06:36:00,
2013-02-12 23:41:00,29.8,14.4,-100.00,North,-999,-999.0,-999.0,48,-99.99,,,-99.99,WSDL version 420,2013-02-13 06:41:00,
2013-02-12 23:46:00,29.8,14.4,-100.00,North,-999,-999.0,-999.0,48,-99.99,,,-99.99,WSDL version 420,2013-02-13 06:46:00,
2013-02-12 23:51:00,29.8,14.4,-100.00,North,-999,-999.0,-999.0,48,-99.99,,,-99.99,WSDL version 420,2013-02-13 06:51:00,
2013-02-12 23:56:00,29.7,14.3,-100.00,North,-999,-999.0,-999.0,48,-99.99,,,-99.99,WSDL version 420,2013-02-13 06:56:00,